Location: Newark
(54.2500°N, 9.1833°E)
Time: 02:55:00
(UTC+00:00)

Transit 4A - All Passes

Search period start: 12 December 2019 00:00
Search period end: 22 December 2019 00:00
Orbit: 870 x 975 km, 66.8° (Epoch: 11 December)

Date Brightness Start Highest point End Pass type
(mag) Time Alt. Az. Time Alt. Az. Time Alt. Az.
12 Dec - 00:00:49 10° NW 00:06:47 85° NE 00:12:37 10° SE night (unlit)
12 Dec - 01:47:54 10° WNW 01:52:29 24° WSW 01:57:02 10° SSW night (unlit)
12 Dec - 15:15:01 10° SSE 15:20:09 28° ESE 15:25:12 10° NE daylight
12 Dec - 16:59:52 10° SW 17:06:02 79° NW 17:12:03 10° NE visible
12 Dec - 18:47:50 10° W 18:53:14 32° NNW 18:58:32 10° NE visible
12 Dec - 20:36:29 10° NW 20:41:20 25° N 20:46:06 10° ENE visible
12 Dec - 22:23:44 10° NW 22:29:17 38° NNE 22:34:43 10° E night (unlit)
13 Dec - 00:10:13 10° NW 00:16:07 74° SW 00:21:54 10° SSE night (unlit)
13 Dec - 01:57:50 10° WNW 02:01:30 17° WSW 02:05:08 10° SW night (unlit)
13 Dec - 15:23:39 10° S 15:29:17 38° ESE 15:34:47 10° NE daylight
13 Dec - 17:09:22 10° WSW 17:15:28 62° NW 17:21:24 10° NE visible
13 Dec - 18:57:44 10° WNW 19:02:55 28° NNW 19:08:00 10° NE visible
13 Dec - 20:46:09 10° NW 20:51:05 25° N 20:55:54 10° ENE visible
13 Dec - 22:33:07 10° NW 22:38:51 46° NE 22:44:26 10° ESE night (unlit)
14 Dec - 00:19:38 10° NW 00:25:22 55° WSW 00:31:01 10° SSE night (unlit)
14 Dec - 02:08:27 10° W 02:10:26 12° W 02:12:26 10° WSW night (unlit)
14 Dec - 13:51:33 10° ESE 13:53:23 11° E 13:55:13 10° E daylight
14 Dec - 15:32:33 10° SSW 15:38:29 52° ESE 15:44:16 10° NE visible
14 Dec - 17:19:01 10° WSW 17:24:57 50° NW 17:30:45 10° NE visible
14 Dec - 19:07:37 10° WNW 19:12:38 26° NNW 19:17:33 10° NE visible
14 Dec - 20:55:45 10° NW 21:00:48 27° NNE 21:05:45 10° ENE visible
14 Dec - 22:42:30 10° NW 22:48:20 58° NE 22:54:04 10° ESE night (unlit)
15 Dec - 00:29:07 10° NW 00:34:34 40° WSW 00:39:56 10° S night (unlit)
15 Dec - 13:58:38 10° SE 14:02:20 17° ESE 14:05:59 10° ENE daylight
15 Dec - 15:41:38 10° SSW 15:47:44 69° SE 15:53:41 10° NE visible
15 Dec - 17:28:44 10° WSW 17:34:29 41° NNW 17:40:07 10° NE visible
15 Dec - 19:17:29 10° WNW 19:22:22 25° N 19:27:10 10° NE visible
15 Dec - 21:05:16 10° NW 21:10:29 30° NNE 21:15:37 10° E visible
15 Dec - 22:51:51 10° NW 22:57:46 73° NE 23:03:35 10° SE night (unlit)
16 Dec - 00:38:42 10° NW 00:43:41 30° WSW 00:48:37 10° S night (unlit)
16 Dec - 14:06:40 10° SSE 14:11:21 23° ESE 14:15:58 10° ENE daylight
16 Dec - 15:50:53 10° SW 15:57:03 89° SE 16:03:04 10° NE visible
16 Dec - 17:38:33 10° W 17:44:05 35° NNW 17:49:31 10° NE visible
16 Dec - 19:27:17 10° NW 19:32:06 24° N 19:36:51 10° NE visible
16 Dec - 21:14:43 10° NW 21:20:08 35° NNE 21:25:26 10° E visible
16 Dec - 23:01:13 10° NW 23:07:09 87° SW 23:12:58 10° SE night (unlit)
17 Dec - 00:48:27 10° WNW 00:52:44 21° WSW 00:57:00 10° SSW night (unlit)
17 Dec - 14:15:07 10° S 14:20:26 32° ESE 14:25:39 10° NE daylight
17 Dec - 16:00:18 10° SW 16:06:26 72° NW 16:12:25 10° NE visible
17 Dec - 17:48:26 10° W 17:53:44 30° NNW 17:58:56 10° NE visible
17 Dec - 19:37:00 10° NW 19:41:51 25° N 19:46:37 10° ENE visible
17 Dec - 21:24:08 10° NW 21:29:43 41° NNE 21:35:13 10° ESE visible
17 Dec - 23:10:37 10° NW 23:16:27 67° SW 23:22:12 10° SSE night (unlit)
18 Dec - 00:58:32 10° WNW 01:01:43 15° WSW 01:04:54 10° SW night (unlit)
18 Dec - 14:23:51 10° S 14:29:35 43° ESE 14:35:12 10° NE daylight
18 Dec - 16:09:51 10° WSW 16:15:52 57° NW 16:21:46 10° NE visible
18 Dec - 17:58:19 10° WNW 18:03:25 27° NNW 18:08:25 10° NE visible
18 Dec - 19:46:39 10° NW 19:51:35 26° NNE 19:56:27 10° ENE visible
18 Dec - 21:33:30 10° NW 21:39:16 50° NE 21:44:55 10° ESE visible
18 Dec - 23:20:03 10° NW 23:25:41 49° WSW 23:31:15 10° SSE night (unlit)
19 Dec - 01:10:28 10° W 01:10:39 10° W 01:10:48 10° W night (unlit)
19 Dec - 12:50:56 10° SE 12:53:37 13° ESE 12:56:16 10° ENE daylight
19 Dec - 14:32:48 10° SSW 14:38:48 57° ESE 14:44:39 10° NE daylight
19 Dec - 16:19:31 10° WSW 16:25:23 46° NW 16:31:07 10° NE visible
19 Dec - 18:08:11 10° WNW 18:13:08 26° N 18:18:00 10° NE visible
19 Dec - 19:56:12 10° NW 20:01:17 28° NNE 20:06:18 10° ENE visible
19 Dec - 21:42:52 10° NW 21:48:45 63° NE 21:54:30 10° ESE visible
19 Dec - 23:29:33 10° NW 23:34:51 36° WSW 23:40:05 10° S night (unlit)
20 Dec - 12:58:30 10° SSE 13:02:35 19° ESE 13:06:37 10° ENE daylight
20 Dec - 14:41:58 10° SSW 14:48:05 76° SE 14:54:04 10° NE daylight
20 Dec - 16:29:17 10° W 16:34:57 39° NNW 16:40:29 10° NE visible
20 Dec - 18:18:02 10° WNW 18:22:52 24° N 18:27:38 10° NE visible
20 Dec - 20:05:42 10° NW 20:10:58 32° NNE 20:16:09 10° E visible
20 Dec - 21:52:14 10° NW 21:58:09 80° NE 22:03:59 10° SE visible
20 Dec - 23:39:11 10° WNW 23:43:57 26° WSW 23:48:40 10° SSW night (unlit)
21 Dec - 13:06:42 10° SSE 13:11:38 26° ESE 13:16:28 10° ENE daylight
21 Dec - 14:51:17 10° SW 14:57:26 84° NW 15:03:26 10° NE daylight
21 Dec - 16:39:07 10° W 16:44:33 33° NNW 16:49:53 10° NE visible
21 Dec - 18:27:48 10° NW 18:32:37 24° N 18:37:21 10° NE visible
21 Dec - 20:15:08 10° NW 20:20:35 37° NNE 20:25:58 10° E visible
21 Dec - 22:01:36 10° NW 22:07:30 80° SW 22:13:18 10° SSE visible
21 Dec - 23:49:02 10° WNW 23:52:59 19° WSW 23:56:55 10° SSW night (unlit)
